Regional Weather Roundup
Issued by NWS Binghamton, NY

Current Version | Previous Version | Text Only | Print | Product List | Glossary On
Versions: 1 2 3 4 5 6 7 8 9 10 11 12 13 14 15 16 17 18 19 20 21 22 23 24 25 26 27 28 29 30 31 32 33 34 35 36 37 38 39 40 41 42 43 44 45 46 47 48 49 50
000
ASUS41 KBGM 220810
RWRBGM

REGIONAL WEATHER ROUNDUP
NATIONAL WEATHER SERVICE BINGHAMTON NY
400 AM EDT MON OCT 22 2018

Note: "fair" indicates few or no clouds below 12,000 feet with no
significant weather and/or obstructions to visibility.

* = Station(s) that does not report precipitation, such as rain,
snow, etc, also no thunder or fog.

NYZ009-015>018-022>025-036-037-044>046-055>057-062-220900
...Central New York...

CITY           SKY/WX    TMP DP  RH WIND       PRES   REMARKS
Binghamton     CLOUDY    33  29  85 W8        30.12R WCI  26
Cortland       CLOUDY    36  32  87 CALM      30.14R
Dansville      CLOUDY    39  29  67 CALM      30.16F
Elmira         CLOUDY    38  33  82 S7        30.16S WCI  33
Seneca Falls   CLOUDY    39  28  65 W6        30.16F WCI  35
Ithaca         CLOUDY    37  29  72 W8        30.15S WCI  31
Hamilton       CLOUDY    36  30  80 CALM      30.12S
Hornell        CLOUDY    36  32  87 CALM      30.18F
Monticello     CLOUDY    34  27  75 W5        30.15R WCI  30
Oneonta        CLEAR     34  27  75 CALM      30.10R
Penn Yan       CLOUDY    38  28  67 SW8       30.15S WCI  32
Rome           LGT RAIN  36  35  96 W6        30.16R WCI  31
Sidney         CLOUDY    36  28  75 CALM      30.14S
Syracuse       DRIZZLE   38  32  79 W7        30.14S WCI  33
$$

PAZ038>040-043-044-047-048-072-220900
...Northeast Pennsylvania...

CITY           SKY/WX    TMP DP  RH WIND       PRES   REMARKS
Hazleton       CLOUDY    36  28  75 W5        30.19S WCI  32
Scranton       CLOUDY    39  30  70 SW9       30.17F WCI  33
$$
&&
KEY
WCI = Wind Chill Index
VSB = Visibility
HX  = Heat Index
$$



USA.gov is the U.S. government's official web portal to all federal, state and local government web resources and services.